Weather reports worldwide

Advertisment
London/Heathrow Intl, United Kingdom (3772): temperature & dewpoint: 19.05.2018 04:00:00 - 25.05.2018 04:00:00 (BST)London/Heathrow Intl, United Kingdom (3772): wind speed: 19.05.2018 04:00:00 - 25.05.2018 04:00:00 (BST)London/Heathrow Intl, United Kingdom (3772): wind direction: 19.05.2018 04:00:00 - 25.05.2018 04:00:00 (BST)London/Heathrow Intl, United Kingdom (3772): reduced air pressure: 19.05.2018 04:00:00 - 25.05.2018 04:00:00 (BST)London/Heathrow Intl, United Kingdom (3772): visibility: 19.05.2018 04:00:00 - 25.05.2018 04:00:00 (BST)London/Heathrow Intl, United Kingdom (3772): sunshine duration: 19.05.2018 04:00:00 - 25.05.2018 04:00:00 (BST)London/Heathrow Intl, United Kingdom (3772): precipitation: 19.05.2018 04:00:00 - 25.05.2018 04:00:00 (BST)
Date & Time tt [°C] td [°C] ff [km/h] ff [kn] dd ppp [hPa] vv [km] sd [min] rr [mm]
25.05.2018 04:00:00 13,1 11,7 4 2 - 1017,7 7 0 0,0
25.05.2018 03:00:00 13,6 11,5 9 5 N 1017,6 10 0 0,0
25.05.2018 02:00:00 13,9 11,5 8 4 N 1017,9 10 0 0,0
25.05.2018 01:00:00 14,0 11,4 9 5 N 1018,1 10 - 0,0
25.05.2018 00:00:00 14,7 11,5 11 6 N 1018,3 10 0 0,0
24.05.2018 23:00:00 16,6 11,9 9 5 NNE 1018,4 10 0 0,0
24.05.2018 22:00:00 16,1 14,5 5 3 WNW 1018,3 4,4 0 0,0
24.05.2018 21:00:00 16,2 14,2 5 3 - 1018,4 5 0 0,0
24.05.2018 20:00:00 16,5 13,9 9 5 WNW 1018,1 6 0 0,0
24.05.2018 19:00:00 16,7 14,7 11 6 W 1018,2 6 0 0,2
24.05.2018 18:00:00 17,0 14,3 11 6 WSW 1018,2 7 0 0,0
24.05.2018 17:00:00 18,1 13,9 16 9 SW 1018,3 9 30 0,0
24.05.2018 16:00:00 18,3 14,6 18 10 W 1018,3 9 6 0,0
24.05.2018 15:00:00 16,8 13,2 11 6 W 1019,2 8 0 0,0
24.05.2018 14:00:00 17,0 12,5 9 5 N 1019,7 9 6 0,0
24.05.2018 13:00:00 17,5 13,2 11 6 NNE 1020,1 9 18 0,0
24.05.2018 12:00:00 16,0 12,8 13 7 NNE 1020,6 8 12 0,0
24.05.2018 11:00:00 13,6 12,3 9 5 NNE 1020,9 5 0 0,0
24.05.2018 10:00:00 11,6 10,8 11 6 NNE 1021,2 4,7 0 1,0
24.05.2018 09:00:00 11,4 10,5 9 5 N 1021,4 5 0 0,2
24.05.2018 08:00:00 11,0 10,2 9 5 N 1021,3 5 0 0,0
24.05.2018 07:00:00 10,7 10,0 9 5 NNE 1021,4 6 0 0,0
24.05.2018 06:00:00 10,6 9,9 13 7 NNE 1021,3 6 0 1,2
24.05.2018 05:00:00 10,7 10,1 15 8 NE 1021,4 6 0 13,6
24.05.2018 04:00:00 10,7 10,1 11 6 NNE 1021,8 4,5 0 3,0
24.05.2018 03:00:00 10,9 9,8 9 5 NE 1021,9 8 0 0,6
24.05.2018 02:00:00 10,9 9,6 9 5 NNE 1022,3 6 0 1,0
24.05.2018 01:00:00 11,7 8,6 15 8 NE 1022,8 10 - 0,0
24.05.2018 00:00:00 11,6 8,6 11 6 NNE 1022,9 10 0 0,0
23.05.2018 23:00:00 11,8 8,7 9 5 NNE 1023,0 10 0 0,0
23.05.2018 22:00:00 12,6 8,9 13 7 NNE 1023,2 10 0 0,0
23.05.2018 21:00:00 13,4 9,2 15 8 NNE 1022,8 10 0 0,0
23.05.2018 20:00:00 14,9 9,6 13 7 N 1022,6 10 0 0,0
23.05.2018 19:00:00 16,6 10,4 13 7 NNE 1022,3 10 0 0,0
23.05.2018 18:00:00 17,1 10,2 13 7 N 1022,2 10 0 0,0
23.05.2018 17:00:00 18,2 10,7 13 7 NNE 1022,3 10 18 0,0
23.05.2018 16:00:00 18,7 10,0 16 9 NE 1022,6 10 54 0,0
23.05.2018 15:00:00 17,5 9,3 16 9 NNE 1022,9 10 60 0,0
23.05.2018 14:00:00 17,5 9,5 16 9 NNE 1023,3 10 60 0,0
23.05.2018 13:00:00 16,6 9,5 16 9 NNE 1023,6 10 60 0,0
23.05.2018 12:00:00 15,7 9,3 21 11 NE 1024,1 10 60 0,0
23.05.2018 11:00:00 14,6 8,9 15 8 NNE 1024,2 10 42 0,0
23.05.2018 10:00:00 12,5 8,1 16 9 N 1024,3 10 6 0,0
23.05.2018 09:00:00 11,8 8,2 11 6 NNE 1024,2 10 0 0,0
23.05.2018 08:00:00 11,1 7,8 16 9 N 1023,9 10 0 0,0
23.05.2018 07:00:00 10,8 7,8 15 8 NNE 1023,5 10 0 0,0
23.05.2018 06:00:00 10,7 7,8 13 7 N 1022,8 10 0 0,0
23.05.2018 05:00:00 10,6 7,7 15 8 NNE 1022,4 10 0 0,0
23.05.2018 04:00:00 10,6 7,6 13 7 NNE 1022,4 10 0 0,0
23.05.2018 03:00:00 10,9 8,0 13 7 NNE 1022,4 10 0 0,0
23.05.2018 02:00:00 11,0 8,1 13 7 NNE 1022,0 10 0 0,0
23.05.2018 01:00:00 11,3 8,4 8 4 NNE 1021,8 10 - 0,0
23.05.2018 00:00:00 11,3 8,4 13 7 NE 1021,5 10 0 0,0
22.05.2018 23:00:00 12,1 8,5 11 6 NE 1021,2 10 0 0,0
22.05.2018 22:00:00 13,6 8,6 13 7 NE 1020,6 10 0 0,0
22.05.2018 21:00:00 15,5 8,3 16 9 NNE 1019,6 10 24 0,0
22.05.2018 20:00:00 17,7 8,8 18 10 NNE 1018,8 10 60 0,0
22.05.2018 19:00:00 19,4 8,6 16 9 NNE 1017,9 10 60 0,0
22.05.2018 18:00:00 21,2 9,2 22 12 NNE 1017,2 10 60 0,0
22.05.2018 17:00:00 22,2 9,5 16 9 NNE 1016,9 10 60 0,0
22.05.2018 16:00:00 22,8 10,7 18 10 NNE 1016,5 10 60 0,0
22.05.2018 15:00:00 22,7 10,1 18 10 NE 1016,6 10 60 0,0
22.05.2018 14:00:00 21,6 11,1 15 8 N 1016,5 10 48 0,0
22.05.2018 13:00:00 21,2 11,8 16 9 N 1016,4 10 60 0,0
22.05.2018 12:00:00 20,3 9,9 16 9 NNE 1016,3 10 60 0,0
22.05.2018 11:00:00 18,8 9,1 15 8 N 1016,3 10 60 0,0
22.05.2018 10:00:00 17,9 8,8 13 7 N 1016,2 10 60 0,0
22.05.2018 09:00:00 16,3 8,1 13 7 NNE 1016,3 10 60 0,0
22.05.2018 08:00:00 14,9 8,3 11 6 NNE 1016,2 10 60 0,0
22.05.2018 07:00:00 13,3 8,6 9 5 NNE 1015,8 10 30 0,0
22.05.2018 06:00:00 12,2 8,4 8 4 N 1015,2 10 0 0,0
22.05.2018 05:00:00 12,7 8,8 9 5 N 1014,7 10 0 0,0
22.05.2018 04:00:00 13,1 9,5 8 4 N 1014,7 10 0 0,0
22.05.2018 03:00:00 13,4 9,7 8 4 N 1014,4 10 0 0,0
22.05.2018 02:00:00 14,2 9,6 8 4 N 1014,6 10 0 0,0
22.05.2018 01:00:00 15,3 9,9 8 4 N 1014,6 10 - 0,0
22.05.2018 00:00:00 16,6 10,4 9 5 NNE 1014,7 10 0 0,0
21.05.2018 23:00:00 18,3 10,6 8 4 NNE 1014,5 10 0 0,0
21.05.2018 22:00:00 19,3 10,6 8 4 N 1014,5 10 0 0,0
21.05.2018 21:00:00 20,1 10,2 8 4 N 1014,3 10 0 0,0
21.05.2018 20:00:00 21,1 10,5 13 7 N 1014,1 10 42 0,0
21.05.2018 19:00:00 21,8 6,8 11 6 NE 1014,0 10 42 0,0
21.05.2018 18:00:00 22,4 9,8 11 6 NE 1014,0 10 24 0,0
21.05.2018 17:00:00 21,8 9,1 9 5 ENE 1014,2 10 0 0,0
21.05.2018 16:00:00 21,5 11,8 11 6 ENE 1014,5 10 0 0,0
21.05.2018 15:00:00 22,1 9,5 13 7 NE 1014,9 10 0 0,0
21.05.2018 14:00:00 21,8 9,6 9 5 NE 1015,2 10 0 0,0
21.05.2018 13:00:00 22,0 8,9 8 4 NE 1015,4 10 12 0,0
21.05.2018 12:00:00 22,7 10,3 8 4 - 1015,8 10 60 0,0
21.05.2018 11:00:00 20,9 10,3 5 3 - 1016,5 10 60 0,0
21.05.2018 10:00:00 19,1 10,4 5 3 - 1016,9 10 60 0,0
21.05.2018 09:00:00 16,4 10,0 8 4 ENE 1017,4 9 42 0,0
21.05.2018 08:00:00 13,0 9,5 5 3 - 1017,8 7 30 0,0
21.05.2018 07:00:00 11,1 8,2 4 2 - 1017,8 6 24 0,0
21.05.2018 06:00:00 9,5 7,5 5 3 N 1017,9 5 0 0,0
21.05.2018 05:00:00 9,6 7,9 8 4 NE 1018,2 3,7 0 0,0
21.05.2018 04:00:00 9,8 8,0 5 3 NE 1018,5 4,0 0 0,0
21.05.2018 03:00:00 10,1 8,5 4 2 E 1018,9 2,6 0 0,0
21.05.2018 02:00:00 10,0 8,1 8 4 E 1019,6 3,2 0 0,0
21.05.2018 01:00:00 10,1 6,8 9 5 E 1020,1 6 - 0,0
21.05.2018 00:00:00 11,7 7,3 9 5 E 1020,1 8 0 0,0
20.05.2018 23:00:00 12,9 7,7 13 7 E 1020,3 10 0 0,0
20.05.2018 22:00:00 14,1 9,2 15 8 E 1020,4 10 0 0,0
20.05.2018 21:00:00 15,9 8,6 18 10 E 1020,1 10 18 0,0
20.05.2018 20:00:00 18,1 7,4 16 9 E 1019,5 10 60 0,0
20.05.2018 19:00:00 20,0 6,6 13 7 E 1019,5 10 60 0,0
20.05.2018 18:00:00 20,9 7,1 13 7 ENE 1019,6 10 60 0,0
20.05.2018 17:00:00 21,2 8,4 8 4 E 1019,9 10 54 0,0
20.05.2018 16:00:00 21,5 8,3 13 7 E 1020,6 10 54 0,0
20.05.2018 15:00:00 21,4 8,1 13 7 SE 1021,3 10 60 0,0
20.05.2018 14:00:00 20,4 8,7 9 5 E 1021,8 10 60 0,0
20.05.2018 13:00:00 20,1 9,2 9 5 ESE 1022,4 10 60 0,0
20.05.2018 12:00:00 18,5 7,9 8 4 E 1022,9 10 60 0,0
20.05.2018 11:00:00 18,3 8,9 9 5 E 1023,1 10 60 0,0
20.05.2018 10:00:00 16,6 8,4 5 3 - 1023,3 10 60 0,0
20.05.2018 09:00:00 15,4 9,0 5 3 - 1023,5 10 60 0,0
20.05.2018 08:00:00 13,6 9,6 4 2 E 1023,6 8 60 0,0
20.05.2018 07:00:00 11,2 8,8 2 1 N 1023,4 7 30 0,0
20.05.2018 06:00:00 9,1 8,1 2 1 ESE 1023,3 6 0 0,0
20.05.2018 05:00:00 9,3 8,0 4 2 W 1023,1 4,9 0 0,0
20.05.2018 04:00:00 9,0 7,3 5 3 S 1023,2 6 0 0,0
20.05.2018 03:00:00 10,0 8,1 9 5 SSE 1023,5 9 0 0,0
20.05.2018 02:00:00 10,4 8,1 8 4 S 1023,7 10 0 0,0
20.05.2018 01:00:00 11,7 8,8 11 6 SE 1023,7 10 - 0,0
20.05.2018 00:00:00 12,4 9,3 8 4 SE 1023,7 8 0 0,0
19.05.2018 23:00:00 13,3 8,2 11 6 SE 1023,7 10 0 0,0
19.05.2018 22:00:00 14,4 7,4 13 7 ESE 1023,4 10 0 0,0
19.05.2018 21:00:00 15,7 7,6 15 8 E 1022,7 10 12 0,0
19.05.2018 20:00:00 18,4 7,5 18 10 ESE 1022,0 10 60 0,0
19.05.2018 19:00:00 20,9 3,6 9 5 ENE 1021,7 10 60 0,0
19.05.2018 18:00:00 21,6 3,4 11 6 E 1022,1 10 60 0,0
19.05.2018 17:00:00 21,6 4,6 5 3 - 1022,3 10 60 0,0
19.05.2018 16:00:00 21,0 3,7 9 5 - 1022,7 10 60 0,0
19.05.2018 15:00:00 21,0 5,4 8 4 SE 1023,0 10 60 0,0
19.05.2018 14:00:00 20,2 3,9 9 5 E 1023,6 10 60 0,0
19.05.2018 13:00:00 19,2 4,5 5 3 - 1024,0 10 60 0,0
19.05.2018 12:00:00 17,9 5,2 9 5 N 1024,5 10 60 0,0
19.05.2018 11:00:00 17,4 6,9 5 3 - 1024,7 10 60 0,0
19.05.2018 10:00:00 15,7 6,4 4 2 - 1024,8 10 60 0,0
19.05.2018 09:00:00 14,4 7,7 4 2 - 1024,8 10 60 0,0
19.05.2018 08:00:00 12,8 8,8 5 3 - 1024,6 9 60 0,0
19.05.2018 07:00:00 9,5 7,0 2 1 - 1024,4 10 36 0,0
19.05.2018 06:00:00 7,7 6,0 2 1 NNW 1024,4 9 0 0,0
19.05.2018 05:00:00 7,8 6,2 2 1 NNW 1024,2 10 0 0,0
19.05.2018 04:00:00 8,5 6,7 4 2 WNW 1024,3 10 0 0,0

tt = temperature
td = dewpoint
ff = wind speed
dd = wind direction
ppp = reduced air pressure
vv = visibility
sd = sunshine duration
rr = precipitation

Next stations